Location: St Paul
(33.4390°N, 83.7350°W)
Time: 15:32:38
(UTC-05:00)

Okean 3 Rocket - Pass Details

Date: 06 October 2017
Orbit: 616 x 644 km, 82.5° (Epoch: 16 December)

Event Time Altitude Azimuth Distance (km) Brightness Sun altitude
Rises 19:59:16 0° 358° (N) 2,906 7.1 -10.6°
Reaches altitude 10° 20:01:32 10° 2° (N) 1,993 6.2 -11.1°
Maximum altitude 20:05:53 60° 82° (E) 711 3.5 -12.0°
Drops below altitude 10° 20:10:12 10° 163° (SSE) 1,970 5.9 -12.9°
Sets 20:12:26 0° 166° (SSE) 2,870 6.8 -13.4°
